Location: Montebello
(37.3256°N, 122.1789°W)
Time: 13:03:54
(UTC-08:00)

Amateur Radio Satellites - All Passes

Search period start: 21 November 2017 12:33
Search period end: 22 November 2017 12:33
Location: Montebello, 37.3256°N, 122.1789°W

Satellite Date Start Highest point End Downlink Frequencies (MHz)
Time Altitude Azimuth
EO-79 21 Nov 12:35:11 12:37:17 13° 268° (W) 12:39:25 145.935-145.965
NANOSAT C BR1 21 Nov 12:38:03 12:40:18 14° 267° (W) 12:42:33 145.865
ESTCUBE 1 21 Nov 12:46:07 12:49:22 20° 293° (WNW) 12:52:37 437.505/2401.250
BEESAT 2 21 Nov 12:47:45 12:51:45 69° 242° (WSW) 12:55:41 435.950
M-CUBED/EXP-1 PRIME 21 Nov 12:53:50 12:55:56 15° 61° (ENE) 12:58:07 437.505
50 SAT 21 Nov 12:54:05 12:55:41 13° 94° (E) 12:57:16 437.505
O/OREOS (USA 219) 21 Nov 12:54:50 12:59:14 47° 106° (ESE) 13:03:40 437.305
FALCONSAT 3 21 Nov 12:55:25 12:59:01 52° 191° (S) 13:02:37 435.103
VELOX 1 21 Nov 13:04:04 13:08:32 80° 286° (WNW) 13:12:58 145.980
BUGSAT 1 21 Nov 13:17:11 13:20:34 23° 264° (W) 13:23:56 437.445
Oscar 19 21 Nov 13:27:01 13:31:54 45° 261° (W) 13:36:48 437.125/150
ITAMSAT 1 21 Nov 13:43:32 13:46:16 14° 62° (ENE) 13:49:01 435.822/435.867
NO-84 21 Nov 13:44:17 13:46:39 17° 122° (ESE) 13:49:08 435.350 FM
DX 1 21 Nov 13:48:25 13:52:49 68° 102° (ESE) 13:57:08 434.975-435.025
AO-85 21 Nov 13:53:31 13:58:03 41° 245° (WSW) 14:02:50 145.980
Gurwin Techsat 1B 21 Nov 13:55:18 14:00:09 36° 262° (W) 14:05:01 435.225
AO-7 21 Nov 14:01:02 14:08:51 49° 65° (ENE) 14:16:43 .
SPROUT 21 Nov 14:01:14 14:02:37 11° 296° (WNW) 14:04:01 437.525
MOZHAYETS 4 21 Nov 14:17:02 14:19:33 14° 92° (E) 14:22:03
50 SAT 21 Nov 14:25:07 14:27:46 24° 288° (WNW) 14:30:23 437.505
M-CUBED/EXP-1 PRIME 21 Nov 14:26:50 14:30:00 32° 258° (WSW) 14:33:23 437.505
UKube-1 21 Nov 14:29:45 14:34:03 66° 285° (WNW) 14:38:19 .
FALCONSAT 3 21 Nov 14:34:58 14:37:43 20° 205° (SSW) 14:40:28 435.103
O/OREOS (USA 219) 21 Nov 14:35:59 14:38:54 16° 302° (WNW) 14:41:49 437.305
JUGNU 21 Nov 14:50:03 14:52:01 12° 172° (S) 14:53:59 437.505
ITAMSAT 1 21 Nov 15:19:55 15:25:07 68° 258° (WSW) 15:30:21 435.822/435.867
NO-84 21 Nov 15:20:07 15:23:35 44° 320° (NW) 15:27:23 435.350 FM
DX 1 21 Nov 15:27:32 15:28:22 10° 297° (WNW) 15:29:12 434.975-435.025
YUBILEINY 21 Nov 15:29:20 15:36:27 26° 69° (ENE) 15:43:30 435.215
BEESAT 21 Nov 15:34:05 15:38:51 76° 102° (ESE) 15:43:35 436.000
ITUPSAT 1 21 Nov 15:44:05 15:48:51 86° 286° (WNW) 15:53:37 437.325
DOVE 4 21 Nov 15:47:11 15:51:43 35° 70° (ENE) 15:56:26 437.250
MOZHAYETS 4 21 Nov 15:52:31 15:56:54 47° 287° (WNW) 16:01:16
AO-7 21 Nov 15:54:23 16:01:43 35° 262° (W) 16:09:08 .
CUBESAT XI-V 21 Nov 16:05:04 16:09:38 50° 99° (E) 16:14:12 437.345
JUGNU 21 Nov 16:37:27 16:40:10 13° 182° (S) 16:42:52 437.505
KAITUO 1B 21 Nov 16:43:25 16:45:27 14° 68° (ENE) 16:47:29 145.475/437.950
CUTE-I 21 Nov 16:56:00 17:00:43 33° 69° (ENE) 17:05:28 437.470
XW-2D 21 Nov 16:58:13 17:01:33 32° 73° (ENE) 17:04:55 145.860 - 145.880
NO-84 21 Nov 17:00:58 17:01:53 11° 340° (NNW) 17:02:49 435.350 FM
RS-15 21 Nov 17:04:26 17:14:20 30° 103° (ESE) 17:24:13 29.354- 29.394
XW-2B 21 Nov 17:12:46 17:16:22 48° 74° (ENE) 17:19:59 145.730 - 145.750
BEESAT 21 Nov 17:14:45 17:15:56 11° 298° (WNW) 17:17:07 436.000
HO-68 21 Nov 17:20:01 17:26:08 31° 63° (ENE) 17:32:15 435.675
YUBILEINY 21 Nov 17:25:08 17:33:49 64° 268° (W) 17:42:28 435.215
DOVE 4 21 Nov 17:25:21 17:29:24 25° 267° (W) 17:33:37 437.250
NUDT-PHONESAT 21 Nov 17:25:25 17:28:55 47° 75° (ENE) 17:32:27 437.300
XW-2C 21 Nov 17:38:17 17:41:59 72° 259° (W) 17:45:43 145.795 - 145.815
KKS-1 21 Nov 17:40:30 17:44:56 68° 286° (WNW) 17:49:20 437.445
LilacSat-2 21 Nov 17:41:00 17:44:41 60° 260° (W) 17:48:24 437.200
CUBESAT XI-V 21 Nov 17:43:48 17:46:33 16° 295° (WNW) 17:49:19 437.345
XW-2F 21 Nov 17:48:32 17:52:10 55° 259° (W) 17:55:50 145.980 - 146.000
CUTE 1.7 + AOD 2 21 Nov 17:54:34 17:58:22 34° 72° (ENE) 18:02:10 437.475
STARS 21 Nov 18:03:05 18:07:30 82° 103° (ESE) 18:11:51 437.465
KAITUO 1B 21 Nov 18:15:49 18:19:07 31° 263° (W) 18:22:26 145.475/437.950
UWE-3 21 Nov 18:16:46 18:20:04 21° 69° (ENE) 18:23:19 435.000/436.395/437.385
SRMSAT 21 Nov 18:22:54 18:25:35 13° 175° (S) 18:28:16 437.500
SEEDS 21 Nov 18:23:42 18:27:39 44° 73° (ENE) 18:31:39 437.485
AAUSAT CUBESAT 2 21 Nov 18:29:34 18:32:43 22° 69° (ENE) 18:35:53 437.432
XW-2D 21 Nov 18:33:52 18:35:48 14° 267° (W) 18:37:45 145.860 - 145.880
CUTE-I 21 Nov 18:36:07 18:40:43 29° 264° (W) 18:45:20 437.470
XW-2A 21 Nov 18:38:57 18:41:48 27° 73° (ENE) 18:44:39 145.665 - 145.685
STRAND 1 21 Nov 18:51:13 18:55:29 26° 96° (E) 18:59:42 437.568
CUBEBUG 2 21 Nov 18:56:04 19:00:41 77° 258° (WSW) 19:05:11 437.445
AO-73 21 Nov 18:56:07 18:59:38 25° 70° (ENE) 19:03:06 145.935
nSIGHT-1 21 Nov 19:03:11 19:04:21 12° 128° (SE) 19:05:32 .
HO-68 21 Nov 19:06:40 19:13:32 48° 260° (W) 19:20:28 435.675
Oscar 11 21 Nov 19:11:49 19:15:19 25° 70° (ENE) 19:18:49 .
RS-15 21 Nov 19:13:25 19:25:43 75° 302° (WNW) 19:38:03 29.354- 29.394
FO-29 21 Nov 19:17:26 19:22:17 18° 88° (E) 19:26:53 435.910
CUTE 1.7 + AOD 2 21 Nov 19:31:32 19:34:15 17° 267° (W) 19:37:00 437.475
ZACube-1 21 Nov 19:40:40 19:45:01 84° 259° (W) 19:49:17 437.345
ISS 21 Nov 19:47:24 19:50:15 28° 133° (SE) 19:53:08 437.550
UWE-3 21 Nov 19:52:19 19:56:18 31° 263° (W) 20:00:13 435.000/436.395/437.385
SEEDS 21 Nov 20:01:41 20:03:33 13° 269° (W) 20:05:25 437.485
AAUSAT CUBESAT 2 21 Nov 20:04:32 20:07:59 26° 264° (W) 20:11:30 437.432
SRMSAT 21 Nov 20:11:18 20:13:54 13° 186° (S) 20:16:30 437.500
XW-2A 21 Nov 20:13:04 20:14:31 12° 267° (W) 20:16:00 145.665 - 145.685
NO-84 21 Nov 20:18:27 20:20:09 12° 23° (NNE) 20:21:52 435.350 FM
DELFI C3 21 Nov 20:28:23 20:31:59 34° 73° (ENE) 20:35:38 145.870
STRAND 1 21 Nov 20:30:07 20:34:38 33° 291° (WNW) 20:39:08 437.568
AO-73 21 Nov 20:32:16 20:35:46 24° 264° (W) 20:39:14 145.935
nSIGHT-1 21 Nov 20:37:02 20:40:12 58° 321° (NW) 20:43:23 .
Oscar 11 21 Nov 20:47:50 20:51:20 24° 264° (W) 20:54:52 .
FO-29 21 Nov 21:00:13 21:08:06 83° 285° (WNW) 21:15:25 435.910
SO-50 21 Nov 21:09:09 21:13:26 49° 116° (ESE) 21:17:47 436.795
EO-88 21 Nov 21:21:37 21:25:13 79° 79° (E) 21:28:52 145.990 - 145.960
ISS 21 Nov 21:23:51 21:26:42 27° 328° (NNW) 21:29:34 437.550
Max Valier Satellite 21 Nov 21:25:03 21:28:39 60° 259° (W) 21:32:16 145.860
UNISAT 6 21 Nov 21:29:50 21:33:47 36° 98° (E) 21:37:42 437.425
RS-15 21 Nov 21:31:02 21:40:44 26° 329° (NNW) 21:50:22 29.354- 29.394
TIGRISAT 21 Nov 21:33:58 21:37:55 36° 98° (E) 21:41:49 435.000
LO-87 21 Nov 21:45:04 21:47:21 16° 69° (ENE) 21:49:37 145.935 - 145.965
NO-84 21 Nov 21:54:14 21:58:22 48° 41° (NE) 22:02:29 435.350 FM
DELFI C3 21 Nov 22:04:33 22:06:49 15° 267° (W) 22:09:07 145.870
ESTCUBE 1 21 Nov 22:06:21 22:10:03 26° 69° (ENE) 22:13:44 437.505/2401.250
PRISM 21 Nov 22:15:18 22:19:12 38° 99° (E) 22:23:03 437.425
nSIGHT-1 21 Nov 22:15:49 22:17:00 12° 340° (NNW) 22:18:11 .
FO-29 21 Nov 22:47:20 22:51:50 17° 303° (WNW) 22:56:15 435.910
SO-50 21 Nov 22:51:04 22:54:10 18° 313° (NW) 22:57:17 436.795
POLYITAN 1 21 Nov 23:01:10 23:02:54 12° 92° (E) 23:04:40 437.675
O/OREOS (USA 219) 21 Nov 23:06:48 23:11:19 64° 68° (ENE) 23:15:47 437.305
UNISAT 6 21 Nov 23:07:26 23:10:11 17° 293° (WNW) 23:12:55 437.425
TIGRISAT 21 Nov 23:11:35 23:14:17 17° 293° (WNW) 23:16:59 435.000
SPROUT 21 Nov 23:14:09 23:17:59 32° 71° (ENE) 23:21:48 437.525
LO-87 21 Nov 23:17:25 23:20:31 26° 264° (W) 23:23:36 145.935 - 145.965
QB50P2 21 Nov 23:23:01 23:26:33 26° 96° (E) 23:30:03 145.880/145.840
NO-84 21 Nov 23:32:17 23:35:28 21° 237° (WSW) 23:38:35 435.350 FM
ESTCUBE 1 21 Nov 23:43:00 23:46:44 26° 264° (W) 23:50:29 437.505/2401.250
AIST 2D 21 Nov 23:48:17 23:51:36 39° 286° (WNW) 23:54:55 435.315
PRISM 21 Nov 23:51:36 23:54:06 16° 294° (WNW) 23:56:36 437.425
RS-15 21 Nov 23:52:32 23:59:36 17° 5° (N) 00:06:30 29.354- 29.394
VELOX 1 21 Nov 23:58:42 00:03:05 69° 76° (ENE) 00:07:32 145.980
PCSat 22 Nov 00:03:39 00:09:03 88° 119° (ESE) 00:14:31 145.827
DUCHIFAT 1 22 Nov 00:10:46 00:14:55 66° 102° (ESE) 00:19:01 145.980
EO-79 22 Nov 00:19:12 00:23:22 72° 284° (WNW) 00:27:32 145.935-145.965
NANOSAT C BR1 22 Nov 00:21:50 00:26:00 77° 285° (WNW) 00:30:10 145.865
POLYITAN 1 22 Nov 00:34:54 00:38:54 46° 287° (WNW) 00:42:54 437.675
Gurwin Techsat 1B 22 Nov 00:36:19 00:37:51 11° 90° (E) 00:39:21 435.225
DX 1 22 Nov 00:41:38 00:45:46 44° 72° (ENE) 00:49:56 434.975-435.025
50 SAT 22 Nov 00:49:08 00:52:18 57° 76° (ENE) 00:55:30 437.505
SPROUT 22 Nov 00:50:52 00:53:53 19° 266° (W) 00:56:56 437.525
QB50P2 22 Nov 00:58:53 01:02:11 23° 291° (WNW) 01:05:28 145.880/145.840
BUGSAT 1 22 Nov 00:59:53 01:03:50 54° 100° (E) 01:07:45 437.445
MOZHAYETS 4 22 Nov 01:18:08 01:19:45 12° 64° (ENE) 01:21:22
UKube-1 22 Nov 01:21:34 01:25:52 78° 75° (ENE) 01:30:12 .
BEESAT 3 22 Nov 01:23:55 01:26:36 18° 110° (ESE) 01:29:18 437.485
nSIGHT-1 22 Nov 01:30:40 01:32:01 12° 21° (NNE) 01:33:22 .
Oscar 19 22 Nov 01:40:12 01:45:23 74° 103° (ESE) 01:50:32 437.125/150
PCSat 22 Nov 01:50:20 01:53:11 14° 315° (NW) 01:56:03 145.827
M-CUBED/EXP-1 PRIME 22 Nov 02:06:29 02:09:49 20° 99° (E) 02:13:10 437.505
RS-15 22 Nov 02:06:53 02:17:27 34° 40° (NE) 02:27:28 29.354- 29.394
AO-7 22 Nov 02:06:59 02:11:37 16° 91° (E) 02:16:12 .
Gurwin Techsat 1B 22 Nov 02:12:59 02:18:19 77° 285° (WNW) 02:23:36 435.225
ISS 22 Nov 02:16:58 02:19:28 20° 28° (NNE) 02:21:59 437.550
DX 1 22 Nov 02:19:44 02:22:07 14° 267° (W) 02:24:32 434.975-435.025
BEESAT 2 22 Nov 02:36:40 02:40:13 31° 113° (ESE) 02:43:49 435.950
BUGSAT 1 22 Nov 02:37:49 02:38:40 11° 296° (WNW) 02:39:33 437.445
BEESAT 22 Nov 02:38:05 02:42:50 69° 74° (ENE) 02:47:34 436.000
ITUPSAT 1 22 Nov 02:48:24 02:53:12 87° 81° (E) 02:58:01 437.325
MOZHAYETS 4 22 Nov 02:51:47 02:56:19 64° 259° (WSW) 03:00:51
BEESAT 3 22 Nov 03:00:11 03:03:51 34° 306° (NW) 03:07:33 437.485
nSIGHT-1 22 Nov 03:05:34 03:08:45 65° 38° (NE) 03:11:55 .
CUBESAT XI-V 22 Nov 03:06:15 03:10:27 38° 72° (ENE) 03:14:43 437.345
Oscar 19 22 Nov 03:21:48 03:24:02 13° 298° (WNW) 03:26:16 437.125/150
ITAMSAT 1 22 Nov 03:34:54 03:39:58 50° 100° (E) 03:44:59 435.822/435.867
M-CUBED/EXP-1 PRIME 22 Nov 03:39:57 03:44:14 40° 293° (WNW) 03:48:33 437.505
DOVE 4 22 Nov 03:50:39 03:52:15 11° 88° (E) 03:53:50 437.250
ISS 22 Nov 03:52:58 03:56:06 46° 225° (SW) 03:59:13 437.550
AO-7 22 Nov 03:56:53 04:05:17 88° 108° (ESE) 04:13:40 .
AO-85 22 Nov 04:06:11 04:10:01 69° 301° (WNW) 04:14:01 145.980
BEESAT 2 22 Nov 04:14:51 04:17:58 21° 310° (NW) 04:21:07 435.950
RS-15 22 Nov 04:19:19 04:31:02 76° 245° (WSW) 04:42:06 29.354- 29.394
BEESAT 22 Nov 04:20:04 04:21:00 10° 269° (W) 04:21:57 436.000
YUBILEINY 22 Nov 04:27:56 04:35:18 32° 84° (E) 04:42:42 435.215
KKS-1 22 Nov 04:35:56 04:40:24 84° 76° (ENE) 04:44:55 437.445
nSIGHT-1 22 Nov 04:44:29 04:44:33 10° 233° (SW) 04:44:37 .
CUBESAT XI-V 22 Nov 04:44:46 04:47:55 18° 267° (W) 04:51:07 437.345
STARS 22 Nov 04:57:10 05:01:29 55° 73° (ENE) 05:05:49 437.465
XW-2C 22 Nov 05:14:05 05:15:58 13° 93° (E) 05:17:51 145.795 - 145.815
ITAMSAT 1 22 Nov 05:15:27 05:18:59 19° 296° (WNW) 05:22:31 435.822/435.867
CUTE-I 22 Nov 05:16:15 05:19:13 15° 92° (E) 05:22:09 437.470
LilacSat-2 22 Nov 05:17:00 05:19:25 16° 94° (E) 05:21:50 437.200
XW-2F 22 Nov 05:23:16 05:25:41 16° 94° (E) 05:28:05 145.980 - 146.000
DOVE 4 22 Nov 05:25:19 05:30:28 71° 285° (WNW) 05:35:18 437.250
SO-50 22 Nov 05:42:17 05:46:15 27° 51° (NE) 05:50:16 436.795
KAITUO 1B 22 Nov 05:48:32 05:51:42 25° 96° (E) 05:54:53 145.475/437.950
AO-7 22 Nov 05:51:24 05:56:58 20° 306° (NW) 06:02:32 .
STRAND 1 22 Nov 06:04:59 06:09:28 31° 69° (ENE) 06:13:58 437.568
XW-2D 22 Nov 06:05:57 06:09:45 67° 102° (ESE) 06:13:32 145.860 - 145.880
XW-2B 22 Nov 06:20:48 06:24:37 81° 283° (WNW) 06:28:26 145.730 - 145.750
YUBILEINY 22 Nov 06:23:11 06:31:38 51° 283° (WNW) 06:40:10 435.215
NUDT-PHONESAT 22 Nov 06:30:41 06:34:24 89° 285° (WNW) 06:38:07 437.300
RS-15 22 Nov 06:35:56 06:41:10 14° 264° (W) 06:46:21 29.354- 29.394
STARS 22 Nov 06:36:27 06:38:06 12° 268° (W) 06:39:45 437.465
HO-68 22 Nov 06:36:30 06:43:07 38° 98° (E) 06:49:40 435.675
XW-2C 22 Nov 06:46:45 06:50:14 35° 287° (WNW) 06:53:44 145.795 - 145.815
CUBEBUG 2 22 Nov 06:49:31 06:52:53 23° 95° (E) 06:56:12 437.445
LilacSat-2 22 Nov 06:50:20 06:53:43 30° 288° (WNW) 06:57:05 437.200
CUTE-I 22 Nov 06:54:20 06:59:38 61° 287° (WNW) 07:04:53 437.470
XW-2F 22 Nov 06:56:29 06:59:48 29° 288° (WNW) 07:03:06 145.980 - 146.000
FO-29 22 Nov 07:09:29 07:15:29 37° 66° (ENE) 07:22:08 435.910
CUTE 1.7 + AOD 2 22 Nov 07:16:23 07:20:41 86° 279° (W) 07:24:58 437.475
SO-50 22 Nov 07:22:33 07:26:42 32° 247° (WSW) 07:30:54 436.795
KAITUO 1B 22 Nov 07:22:50 07:25:29 18° 291° (WNW) 07:28:08 145.475/437.950
ZACube-1 22 Nov 07:31:32 07:34:37 20° 95° (E) 07:37:43 437.345
XW-2A 22 Nov 07:34:18 07:37:28 38° 99° (E) 07:40:38 145.665 - 145.685
UWE-3 22 Nov 07:43:14 07:47:19 56° 100° (E) 07:51:23 435.000/436.395/437.385
STRAND 1 22 Nov 07:44:11 07:48:35 28° 264° (W) 07:53:00 437.568
SEEDS 22 Nov 07:44:32 07:48:46 68° 284° (WNW) 07:52:58 437.485
AAUSAT CUBESAT 2 22 Nov 07:47:36 07:51:42 52° 100° (E) 07:55:47 437.432
AO-73 22 Nov 08:20:56 08:25:05 70° 102° (ESE) 08:29:14 145.935
HO-68 22 Nov 08:24:15 08:30:44 38° 295° (WNW) 08:37:12 435.675
CUBEBUG 2 22 Nov 08:26:04 08:29:24 24° 290° (WNW) 08:32:43 437.445
UNISAT 6 22 Nov 08:26:31 08:30:20 27° 70° (ENE) 08:34:05 437.425
TIGRISAT 22 Nov 08:30:30 08:34:19 27° 70° (ENE) 08:38:05 435.000
Oscar 11 22 Nov 08:35:54 08:40:14 69° 101° (E) 08:44:32 .
PCSat 22 Nov 08:53:41 08:58:53 45° 58° (ENE) 09:04:02 145.827
FO-29 22 Nov 08:54:22 09:00:24 38° 265° (W) 09:07:08 435.910
Max Valier Satellite 22 Nov 08:58:07 08:59:56 13° 93° (E) 09:01:45 145.860
PRISM 22 Nov 09:02:48 09:05:55 21° 68° (ENE) 09:09:04 437.425
FALCONSAT 3 22 Nov 09:03:59 09:07:14 30° 160° (SSE) 09:10:30 435.103
ZACube-1 22 Nov 09:07:20 09:10:53 28° 289° (WNW) 09:14:28 437.345
UWE-3 22 Nov 09:22:16 09:23:14 11° 295° (WNW) 09:24:14 435.000/436.395/437.385
AAUSAT CUBESAT 2 22 Nov 09:25:02 09:26:39 12° 295° (WNW) 09:28:17 437.432
DELFI C3 22 Nov 09:41:10 09:45:11 78° 103° (ESE) 09:49:09 145.870
UNISAT 6 22 Nov 10:03:07 10:06:56 26° 264° (W) 10:10:42 437.425
TIGRISAT 22 Nov 10:07:07 10:10:54 25° 264° (W) 10:14:39 435.000
QB50P2 22 Nov 10:14:19 10:16:55 16° 67° (ENE) 10:19:31 145.880/145.840
AIST 2D 22 Nov 10:19:53 10:23:10 44° 75° (ENE) 10:26:29 435.315
EO-88 22 Nov 10:25:26 10:29:02 56° 285° (WNW) 10:32:37 145.990 - 145.960
Max Valier Satellite 22 Nov 10:30:31 10:33:49 32° 287° (WNW) 10:37:07 145.860
PRISM 22 Nov 10:37:29 10:41:00 27° 263° (W) 10:44:34 437.425
PCSat 22 Nov 10:37:49 10:41:56 22° 254° (WSW) 10:46:02 145.827
FALCONSAT 3 22 Nov 10:42:25 10:46:04 62° 175° (S) 10:49:44 435.103
LO-87 22 Nov 10:45:54 10:48:49 24° 96° (E) 10:51:42 145.935 - 145.965
BEESAT 2 22 Nov 10:57:12 10:58:53 12° 45° (NE) 11:00:35 435.950
DUCHIFAT 1 22 Nov 11:00:14 11:04:04 35° 72° (ENE) 11:07:55 145.980
EO-79 22 Nov 11:08:57 11:13:08 61° 74° (ENE) 11:17:19 145.935-145.965
NANOSAT C BR1 22 Nov 11:11:16 11:15:25 57° 75° (ENE) 11:19:33 145.865
BEESAT 3 22 Nov 11:18:11 11:22:06 65° 58° (ENE) 11:25:56 437.485
POLYITAN 1 22 Nov 11:24:36 11:28:51 86° 261° (W) 11:33:06 437.675
ESTCUBE 1 22 Nov 11:36:20 11:40:53 75° 102° (ESE) 11:45:25 437.505/2401.250
BUGSAT 1 22 Nov 11:47:23 11:51:01 29° 71° (ENE) 11:54:37 437.445
QB50P2 22 Nov 11:48:22 11:52:21 39° 262° (W) 11:56:21 145.880/145.840
VELOX 1 22 Nov 11:52:03 11:54:37 15° 93° (E) 11:57:10 145.980
Gurwin Techsat 1B 22 Nov 11:54:36 11:57:50 17° 63° (ENE) 12:01:06 435.225
LO-87 22 Nov 12:19:41 12:22:01 17° 291° (WNW) 12:24:19 145.935 - 145.965
FALCONSAT 3 22 Nov 12:21:25 12:25:02 53° 190° (S) 12:28:38 435.103
